Charlottesville, VA

1:07 PM EDT on October 15, 2019 (GMT -0400)
Charlottesville-Albemarle

Weather History for KCHO - August, 2019

Change the Weather History Date:

Wednesday, August 14, 2019

  Actual Average Record
Temperature  
Mean Temperature 81 °F 74 °F  
Max Temperature 91 °F 85 °F 102 °F (1943)
Min Temperature 71 °F 64 °F 50 °F (1983)
Degree Days  
Heating Degree Days 0 0  
Month to date heating degree days 0 0  
Since 1 June heating degree days 0 12  
Since 1 July heating degree days 0 1  
Cooling Degree Days 16 9  
Month to date cooling degree days 190 138  
Year to date cooling degree days 1258 768  
Since 1 June cooling degree days 972 682  
Growing Degree Days 30 (Base 50)    
Moisture  
Dew Point 70 °F    
Average Humidity 73    
Maximum Humidity 93    
Minimum Humidity 52    
Precipitation  
Precipitation 0.00 in 0.12 in 1.07 in (2011)
Month to date precipitation 0.80 1.90  
Year to date precipitation 26.10 26.42  
Sea Level Pressure  
Sea Level Pressure 29.81 in    
Wind  
Wind Speed 3 mph (SW)    
Max Wind Speed 9 mph    
Max Gust Speed 13 mph    
Visibility 6 miles    
Events      
T = Trace of Precipitation, MM = Missing Value Source: NWS Daily Summary

Daily Weather History Graph

Daily Weather History Graph

Search for Another Location

Airport or City:

Astronomy

Aug. 14, 2019 Rise Set
Actual Time 6:27 AM EDT 8:08 PM EDT
Civil Twilight 5:59 AM EDT 8:36 PM EDT
Nautical Twilight 5:25 AM EDT 9:10 PM EDT
Astronomical Twilight 4:48 AM EDT 9:46 PM EDT
Moon 8:00 PM EDT (8/14) 5:24 AM EDT (8/14)
Length of Visible Light 14h 37m
Length of Day
13h 41m
Waxing Gibbous, 99% of the Moon is Illuminated
Aug 14
Waxing Gibbous
Aug 15
Full
Aug 23
Last Quarter
Aug 30
New
Sep 5
First Quarter

Hourly Weather History & Observations

Time (EDT) Temp. Heat Index Dew Point Humidity Pressure Visibility Wind Dir Wind Speed Gust Speed Precip Events Conditions
12:11 AM 73.0 °F - 70.0 °F 90% 29.80 in 3.0 mi Calm Calm - N/A   Partly Cloudy
12:33 AM 73.0 °F - 69.1 °F 87% 29.80 in 1.8 mi Calm Calm - N/A   Clear
12:42 AM 72.0 °F - 69.1 °F 91% 29.80 in 1.0 mi Calm Calm - N/A   Unknown
12:48 AM 71.6 °F - 69.8 °F 94% 29.80 in 2.0 mi Calm Calm - N/A   Clear
12:53 AM 72.0 °F - 69.1 °F 91% 29.77 in 1.5 mi Calm Calm - N/A   Clear
1:04 AM 72.0 °F - 69.1 °F 91% 29.80 in 4.0 mi NNW 3.5 mph - N/A   Clear
1:37 AM 71.1 °F - 69.1 °F 93% 29.80 in 1.5 mi SSW 4.6 mph - N/A   Partly Cloudy
1:53 AM 72.0 °F - 69.1 °F 91% 29.78 in 2.5 mi West 4.6 mph - N/A   Scattered Clouds
2:03 AM 73.0 °F - 70.0 °F 90% 29.80 in 6.0 mi West 3.5 mph - N/A   Partly Cloudy
2:20 AM 72.0 °F - 70.0 °F 93% 29.79 in 3.0 mi Calm Calm - N/A   Mostly Cloudy
2:25 AM 72.0 °F - 70.0 °F 93% 29.79 in 1.8 mi Calm Calm - N/A   Mostly Cloudy
2:44 AM 72.0 °F - 69.1 °F 91% 29.79 in 2.0 mi Calm Calm - N/A   Scattered Clouds
2:53 AM 72.0 °F - 69.1 °F 91% 29.76 in 9.0 mi Calm Calm - N/A   Partly Cloudy
3:08 AM 72.0 °F - 68.0 °F 87% 29.78 in 1.8 mi Calm Calm - N/A   Clear
3:11 AM 72.0 °F - 68.0 °F 87% 29.78 in 3.0 mi Calm Calm - N/A   Clear
3:48 AM 71.6 °F - 68.0 °F 88% 29.79 in 2.0 mi South 5.8 mph - N/A   Scattered Clouds
3:50 AM 71.6 °F - 68.0 °F 88% 29.79 in 0.8 mi SSW 4.6 mph - N/A   Unknown
3:53 AM 71.1 °F - 68.0 °F 90% 29.76 in 0.5 mi SW 4.6 mph - N/A   Unknown
4:04 AM 71.1 °F - 68.0 °F 90% 29.79 in 1.5 mi Calm Calm - N/A   Scattered Clouds
4:09 AM 72.0 °F - 69.1 °F 91% 29.79 in 3.0 mi SSW 3.5 mph - N/A   Scattered Clouds
4:53 AM 73.0 °F - 69.1 °F 87% 29.76 in 10.0 mi SSW 4.6 mph - N/A   Clear
5:53 AM 73.9 °F - 68.0 °F 82% 29.78 in 10.0 mi SW 4.6 mph - N/A   Partly Cloudy
6:53 AM 73.9 °F - 69.1 °F 85% 29.80 in 10.0 mi SSW 4.6 mph - N/A   Overcast
7:53 AM 75.9 °F - 70.0 °F 82% 29.82 in 10.0 mi SSE 6.9 mph - N/A   Overcast
8:53 AM 80.1 °F 83.6 °F 71.1 °F 74% 29.84 in 10.0 mi Calm Calm - N/A   Mostly Cloudy
9:53 AM 82.9 °F 87.0 °F 70.0 °F 65% 29.81 in 10.0 mi WNW 5.8 mph - N/A   Clear
10:53 AM 87.1 °F 92.8 °F 71.1 °F 59% 29.82 in 10.0 mi Variable 5.8 mph - N/A   Mostly Cloudy
11:53 AM 88.0 °F 92.9 °F 70.0 °F 55% 29.82 in 10.0 mi North 3.5 mph - N/A   Clear
12:53 PM 90.0 °F 96.4 °F 71.1 °F 54% 29.83 in 10.0 mi NNW 3.5 mph - N/A   Mostly Cloudy
1:53 PM 90.0 °F 95.4 °F 70.0 °F 52% 29.82 in 10.0 mi Variable 4.6 mph - N/A   Scattered Clouds
2:53 PM 88.0 °F 92.1 °F 69.1 °F 53% 29.83 in 10.0 mi Calm Calm - N/A   Mostly Cloudy
3:53 PM 90.0 °F 96.4 °F 71.1 °F 54% 29.83 in 10.0 mi Calm Calm - N/A   Mostly Cloudy
4:53 PM 86.0 °F 90.1 °F 69.1 °F 57% 29.82 in 10.0 mi ENE 6.9 mph - N/A   Mostly Cloudy
5:53 PM 88.0 °F 92.9 °F 70.0 °F 55% 29.82 in 10.0 mi East 5.8 mph - N/A   Overcast
6:53 PM 88.0 °F 92.1 °F 69.1 °F 53% 29.81 in 10.0 mi ESE 5.8 mph - N/A   Overcast
7:53 PM 82.0 °F 86.3 °F 71.1 °F 69% 29.83 in 10.0 mi Calm Calm - N/A   Overcast
8:53 PM 81.0 °F 85.2 °F 72.0 °F 74% 29.86 in 10.0 mi Calm Calm - N/A   Overcast
9:53 PM 81.0 °F 85.8 °F 73.0 °F 77% 29.88 in 10.0 mi NNW 3.5 mph - N/A   Overcast
10:53 PM 79.0 °F - 73.0 °F 82% 29.89 in 10.0 mi Calm Calm - N/A   Overcast
11:53 PM 78.1 °F - 73.0 °F 84% 29.90 in 10.0 mi Calm Calm - N/A   Overcast